Location: Unspecified
(32.6180°N, 83.6190°W)
Time: 01:42:08
(UTC+00:00)

Daily predictions for brighter satellites

Satellite Brightness Start Highest point End
(mag) Time Altitude Azimuth Time Altitude Azimuth Time Altitude Azimuth
CZ-4 R/B 2.2 01:08:07 10° SE 01:11:27 30° ENE 01:14:52 10° NNE
Cosmos 1680 Rocket 4.4 01:12:07 10° SSE 01:16:23 26° E 01:20:39 10° NE
SPOT 5 3.1 01:15:09 10° SSE 01:20:12 89° W 01:25:28 10° NNW
NOSS 2-1 (E) 3.5 01:16:33 10° SSW 01:21:31 58° ESE 01:25:11 10° NE
CSL-04 Debris 4.3 01:16:31 10° SSE 01:21:53 65° ENE 01:27:14 10° N
OAO 2 Rocket 4.3 01:19:56 10° W 01:24:42 38° SSW 01:29:31 10° SE
ERS-1 Rocket 3.5 01:20:43 10° SE 01:25:22 41° ENE 01:30:01 10° N
USA 59 Rocket 0.2 01:22:36 10° SW 01:27:08 65° WNW 01:30:33 10° NNE
Okean O Rocket 3.7 01:26:10 10° E 01:28:02 13° ENE 01:29:54 10° NE
Helios 1A Rocket 3.6 01:28:52 10° NE 01:31:19 21° E 01:33:22 12° SE
Terra 2.3 01:30:46 10° SE 01:35:12 43° ENE 01:39:38 10° N
Cosmos 1703 2.6 01:33:23 10° S 01:36:30 65° E 01:39:38 10° NNE
Cosmos 1408 Rocket 3.7 01:33:04 10° N 01:37:24 56° E 01:41:43 10° SSE
SL-08 R/B 3.8 01:33:39 10° NNE 01:37:53 37° E 01:42:09 10° SSE
NOSS 2-1 (D) 3.9 01:34:26 10° SW 01:39:02 60° WNW 01:42:30 10° NNE
Cosmos 1805 Rocket 3.6 01:38:32 10° N 01:42:53 65° E 01:47:12 10° SSE
SL-4 R/B 2.9 01:39:48 10° WSW 01:43:10 42° NW 01:46:24 10° NNE
SKYMED 3 4.3 01:45:31 10° NNE 01:49:26 63° E 01:53:17 10° S
HBTSS-SV1 4.4 01:45:06 10° WNW 01:49:26 74° SSW 01:52:27 19° SE
Cosmos 1743 Rocket 3.8 01:53:23 10° N 01:57:41 52° E 02:00:34 20° SSE
Cosmos 923 Rocket 4.3 01:56:11 10° SSW 02:01:24 72° WNW 02:06:36 10° NNE
Cosmos 494 Rocket 4.0 01:56:20 10° S 02:01:28 65° ESE 02:06:40 10° NNE
IRS-1A Rocket 4.5 01:58:33 17° SSE 02:03:04 60° ENE 02:08:44 10° N
Cosmos 2344 4.2 01:59:26 10° SW 02:08:00 60° WNW 02:15:08 10° NNE
Cosmos 2112 Rocket 3.9 02:04:16 10° S 02:09:23 76° ESE 02:14:33 10° NNE
CZ-4B DEB 4.4 02:04:34 10° S 02:09:55 69° WSW 02:15:22 10° NNW
Cosmos 1833 Rocket 2.8 02:05:56 10° NNW 02:11:35 77° WSW 02:15:43 19° SSE
Meteor 1-22 Rocket 4.1 02:07:13 10° N 02:12:29 64° E 02:15:51 23° SSE
Aurora 2 Rocket 3.9 02:06:33 10° WSW 02:12:36 35° SSW 02:14:47 25° SSE
Cosmos 1633 Rocket 4.1 02:09:55 10° NNE 02:13:42 28° ENE 02:14:45 25° ESE
ATLAS 5 CENTAUR R/B 1.9 02:14:56 25° ENE 02:14:56 25° ENE 02:16:28 10° NE
MetOp-B 4.2 02:11:21 15° S 02:15:48 78° WSW 02:21:10 10° NNW
ADEOS 3.5 02:12:45 21° SSE 02:16:20 81° ENE 02:21:33 10° N
Meteor 1-23 Rocket 4.3 02:14:13 19° SSE 02:18:05 55° E 02:23:31 10° NNE
CZ-4B R/B 3.2 02:13:58 18° S 02:18:07 83° WSW 02:23:26 10° NNW
Iridium 45 4.2 02:21:29 53° ESE 02:21:45 55° E 02:24:50 10° N
YAOGAN 11 4.0 02:18:07 10° NNE 02:22:26 66° E 02:24:46 26° S
BREEZE-M DEB (TANK) 1.9 02:23:16 10° WNW 02:24:50 41° WSW 02:24:50 41° WSW
Cosmos 2315 Rocket 4.0 02:21:18 21° SSE 02:25:25 58° E 02:31:29 10° NNE
Cosmos 1174 4.2 02:21:48 10° SW 02:26:15 63° WNW 02:29:55 10° NNE
Centaur D-1AR AC-41 4.4 02:08:53 10° WSW 02:26:54 37° SSW 02:29:17 27° SSE
Cosmos 1943 Rocket 3.6 02:24:32 10° SW 02:29:48 39° WNW 02:35:03 10° N
Cosmos 883 Rocket 4.4 02:27:07 21° S 02:31:17 68° E 02:37:21 10° NNE
S3M 3.9 02:26:38 14° S 02:31:56 87° E 02:38:08 10° N
Cosmos 1953 2.1 02:33:00 10° N 02:36:33 72° W 02:37:25 48° SSW
ARIANE 6 FM1 Upper Stage 2.7 02:32:21 10° SSW 02:36:37 83° NW 02:40:48 10° NNE
Okean-O 2.5 02:40:27 43° S 02:41:52 86° W 02:46:15 10° NNW
Iridium 4 Rocket 3.5 02:39:09 22° S 02:42:20 71° W 02:47:00 10° N
Cosmos 2278 Rocket 3.4 02:37:30 10° SW 02:42:48 42° WNW 02:48:10 10° N
CZ-4 R/B 4.0 02:43:35 10° WSW 02:45:28 13° W 02:47:23 10° WNW
Cosmos 1709 Rocket 4.0 02:39:49 10° N 02:46:12 70° E 02:48:48 37° SSE
Cosmos 2082 Rocket 3.0 02:41:33 10° N 02:46:40 35° ENE 02:48:02 31° E
Okean 2 3.0 02:47:20 73° SSE 02:47:37 80° E 02:51:29 10° N
CZ-4B R/B 3.7 02:50:59 37° ENE 02:50:59 37° ENE 02:54:28 10° N
Cosmos 1048 Rocket 3.9 02:49:18 28° SSW 02:52:08 89° ESE 02:57:26 10° NNE
Mugunghwa Rocket 4.4 02:44:42 10° WSW 02:52:14 54° S 02:54:33 39° SE
Cosmos 1656 Rocket 3.5 02:52:02 39° S 02:54:01 68° ESE 02:59:32 10° NNE
Meteor 1-15 Rocket 4.3 02:50:49 10° NNW 02:56:28 75° W 02:58:43 37° S
Okean 3 4.1 02:59:41 38° NE 02:59:41 38° NE 03:02:37 10° NNE
SPOT 3 Rocket 3.5 02:58:45 54° SE 02:59:47 70° ENE 03:04:55 10° N
Cosmos 1470 Rocket 3.5 02:56:00 10° N 03:00:24 66° E 03:00:29 66° E
Okean O Rocket 2.4 03:02:34 37° SW 03:03:43 46° W 03:07:57 10° NNW
Cosmos 1624 Rocket 3.9 03:00:16 10° NNW 03:05:36 88° WSW 03:06:39 59° SSE
SL-12 R/B(2) 4.0 03:01:07 16° SSW 03:07:18 72° ESE 03:16:01 10° NE
Meteor 1-16 Rocket 4.2 03:01:55 10° N 03:07:44 89° ENE 03:09:18 51° S
Terra 4.3 03:10:20 10° SW 03:12:50 14° W 03:15:22 10° WNW
CZ-4B R/B 3.5 03:15:24 62° E 03:15:48 64° ENE 03:20:59 10° N
Cosmos 2056 Rocket 3.6 03:11:02 10° NNW 03:16:04 65° WSW 03:16:51 57° SSW
Cosmos 2369 Rocket 2.9 03:17:47 38° ENE 03:17:47 38° ENE 03:21:55 10° NE
Ariane Rocket 2.8 03:17:13 73° ESE 03:17:36 78° ENE 03:22:39 10° N
NOSS 3-1 (C) 3.1 03:27:14 49° WSW 03:28:10 61° WNW 03:33:05 10° NNE
Cosmos 2297 4.3 03:32:16 43° ENE 03:32:16 43° ENE 03:36:37 10° NNE
Cosmos 614 Rocket 4.1 03:33:25 59° WSW 03:34:04 65° WNW 03:39:06 10° N
USA 81 4.3 03:29:44 10° N 03:34:27 57° ENE 03:34:27 57° ENE
Exosat Rocket 3.8 03:41:55 75° SSE 03:42:23 82° ESE 03:49:47 10° NNE
COSMOS 2406 3.6 03:39:12 10° N 03:44:33 49° ENE 03:44:33 49° ENE
Cosmos 2074 Rocket 3.9 03:48:47 10° N 03:54:59 76° E 03:55:00 76° E
Cosmos 1110 Rocket 4.2 03:50:59 10° NNW 03:55:28 63° WNW 03:55:28 63° WNW
COSMOS 2455 3.0 04:03:10 63° NE 04:03:10 63° NE 04:08:13 10° NNE
Nadezhda 1 Rocket 3.9 04:05:31 81° NE 04:05:31 81° NE 04:11:32 10° N
Lacrosse 4 Rocket 3.8 04:05:21 10° NNE 04:06:56 16° NNE 04:06:56 16° NNE
Cosmos 1818 4.1 04:11:46 52° WNW 04:12:00 52° WNW 04:17:18 10° NNE
Cosmos 1452 Rocket 4.0 04:08:11 10° NNW 04:12:25 58° NNW 04:12:25 58° NNW
Cosmos 2082 Rocket 3.8 04:25:59 10° NW 04:29:51 24° W 04:29:51 24° W
Meteor 1-24 Rocket 4.1 04:38:51 65° N 04:38:51 65° N 04:43:56 10° N
ACS3 Solar Sail 3.7 04:37:34 10° NE 04:39:34 16° ENE 04:39:34 16° ENE
Cosmos 2369 Rocket 4.1 04:59:29 20° W 05:00:49 22° WNW 05:05:04 10° N
Cosmos 2341 Rocket 4.4 05:14:12 10° N 05:19:10 59° NNW 05:19:10 59° NNW
CZ-2C R/B 4.3 05:29:08 10° N 05:32:13 36° N 05:32:13 36° N
Nadezhda 3 Rocket 4.4 05:46:24 60° NNE 05:46:24 60° NNE 05:51:27 10° N
ATLAS 3B R/B 3.7 05:48:52 40° E 05:48:52 40° E 05:54:58 10° NE
SJ 16-02 3.7 06:03:14 21° N 06:03:14 21° N 06:04:44 10° N
CZ-2C R/B 3.7 06:04:50 39° NNW 06:04:50 39° NNW 06:08:07 10° NNW
Cosmos 1697 Rocket 4.1 06:05:34 31° ENE 06:05:34 31° ENE 06:08:55 10° NE
ACS3 Solar Sail 2.5 06:18:27 10° N 06:22:53 43° NW 06:22:53 43° NW
Cosmos 2251 Rocket 4.4 06:27:49 46° N 06:27:49 46° N 06:31:33 10° NNE
GEOS 3 Rocket 4.3 06:37:29 51° NE 06:37:29 51° NE 06:42:36 10° NNW
USA 229 DEB 3.9 06:42:20 53° NW 06:42:20 53° NW 06:48:09 10° NNE
USA 229 3.8 06:42:23 54° NW 06:42:23 54° NW 06:48:12 10° NNE
USA 215 3.3 06:45:40 62° ESE 06:46:44 76° NE 06:53:15 10° NW
Cosmos 2297 Rocket 2.5 06:46:17 10° NNW 06:51:20 62° NNE 06:51:20 62° NNE
Cosmos 1980 Rocket 3.0 06:54:00 44° E 06:54:00 44° E 06:58:43 10° NNE
IDEFIX/ARIANE 42P 3.2 06:52:17 10° NNE 06:56:32 49° ENE 06:56:32 49° ENE
Meteor 2-21 4.4 07:00:55 82° N 07:00:55 82° N 07:06:50 10° N
ADEOS Rocket 3.0 06:55:09 10° NNE 07:00:19 61° ENE 07:00:19 61° ENE
ISS -0.5 07:03:48 13° NE 07:03:48 13° NE 07:04:10 10° NE
BREEZE-M DEB (TANK) 3.7 07:21:40 67° WNW 07:22:01 69° NW 07:34:16 10° NE
CZ-2D R/B 3.9 07:26:01 10° NE 07:30:06 22° E 07:31:52 19° ESE
Cosmos 1153 Rocket 4.4 07:26:12 10° N 07:32:22 80° E 07:33:21 63° SSE
NOAA 11 4.3 07:27:46 10° NNE 07:33:12 62° E 07:33:41 59° SE
SL-16 R/B 4.2 07:31:21 15° SE 07:33:22 18° E 07:37:01 10° ENE
Cosmos 1727 Rocket 3.8 07:35:39 72° SW 07:36:13 79° W 07:42:25 10° N
ATLAS 3B R/B 3.8 07:36:05 31° W 07:38:31 38° NW 07:45:45 10° NNE
Meteor 1-27 4.2 07:41:25 10° N 07:47:14 86° W 07:48:09 66° S
Cosmos 1697 Rocket 4.2 07:47:16 22° WNW 07:47:44 23° WNW 07:52:04 10° N
Cosmos 2369 3.7 07:49:01 61° SSE 07:49:52 72° ESE 07:55:34 10° NNE
CENTAUR R/B 3.3 07:41:59 10° NW 07:50:52 67° WSW 07:56:42 27° S
Cosmos 1437 Rocket 4.0 07:51:41 10° N 07:53:36 31° N 07:53:36 31° N
Cosmos 2228 3.1 07:52:27 10° N 07:56:39 68° E 07:56:40 68° E
Cosmos 2333 Rocket 3.8 07:55:29 20° SE 07:57:59 27° ESE 08:02:41 10° NE
MOS 1-B Rocket 4.2 07:52:51 10° N 07:58:12 45° WNW 07:58:49 44° W
Cosmos 1782 4.3 07:54:49 10° NNW 07:56:27 25° NNW 07:56:27 25° NNW
ALOS 3.2 07:55:53 10° NNE 08:00:10 40° E 08:01:15 34° SE
Cosmos 2100 Rocket 3.9 07:56:23 10° N 08:02:36 87° E 08:05:01 40° S
DELTA 2 R/B (1) 3.8 08:01:04 43° W 08:02:44 62° NNW 08:08:13 10° ENE
FENGYUN 3A 4.1 07:58:04 10° N 08:03:07 43° WNW 08:03:33 42° W
Resurs 1-4 Rocket 2.5 08:01:11 10° NNE 08:06:22 58° ESE 08:08:10 38° SSE
Cosmos 2227 Rocket 2.0 08:01:11 10° NNW 08:06:48 71° WSW 08:08:06 52° S
Cosmos 1975 Rocket 3.3 08:08:37 52° WNW 08:08:37 52° WNW 08:12:25 10° N
SL-24 R/B - RUBIN 2 3.8 08:07:30 10° NNW 08:12:19 89° ENE 08:15:52 21° SSE
Tiangong -0.1 08:14:56 22° ESE 08:14:56 22° ESE 08:16:29 10° E
DNEPR-1 R/B 3.9 08:15:19 47° SE 08:15:52 51° ESE 08:20:02 10° NE
SL-4 R/B 3.7 08:14:39 10° NNW 08:17:15 24° NE 08:19:50 10° E
Cosmos 2322 Rocket 4.0 08:15:14 12° SSE 08:19:12 24° E 08:23:37 10° NE
STPSAT 2 (USA 217) 4.5 08:17:37 10° NNW 08:22:03 84° ENE 08:23:54 35° SSE
USA 308 2.6 08:26:06 10° NW 08:30:22 79° NE 08:33:52 10° SE
Cosmos 2058 4.1 08:31:50 25° WNW 08:31:50 25° WNW 08:34:37 10° NNW
H-2A R/B 1.9 08:27:25 10° NNE 08:32:31 89° ESE 08:34:37 36° SSW
Envisat 3.3 08:29:57 10° N 08:34:51 52° WNW 08:36:23 38° WSW
Cosmos 2297 Rocket 4.3 08:32:59 10° WNW 08:33:04 10° WNW 08:33:04 10° WNW
MOZ.5/SAFIR/RUBIN 5/SL-8 3.7 08:34:32 41° SSW 08:35:59 63° WSW 08:40:35 10° NNW
IDEFIX/ARIANE 42P 4.4 08:33:31 10° NNW 08:36:17 15° WNW 08:37:13 14° WNW
Cosmos 1980 Rocket 3.8 08:35:44 18° W 08:37:28 21° WNW 08:41:38 10° NNW
ISS -1.0 08:36:44 10° NW 08:37:57 12° NNW 08:39:19 10° N
Cosmos 1802 Rocket 4.0 08:35:26 10° NNW 08:41:48 68° W 08:46:17 21° S
Cosmos 2233 Rocket 4.2 08:36:24 10° N 08:42:42 75° E 08:48:59 10° S
Cosmos 2219 3.4 08:37:39 10° NNW 08:43:20 73° ENE 08:49:01 10° SSE
Cosmos 44 3.5 08:41:23 32° SSW 08:43:46 77° ESE 08:49:06 10° NNE
Cosmos 2263 Rocket 2.3 08:40:07 10° NNW 08:45:32 50° WSW 08:48:57 22° S
Cosmos 2219 Rocket 4.1 08:43:08 10° SSE 08:47:29 23° E 08:51:50 10° NE
Cosmos 1743 3.3 08:47:50 23° SE 08:49:10 38° E 08:51:57 10° NNE
NOSS 3-4 (A) 3.2 08:54:27 24° SSW 08:57:38 71° ESE 09:03:01 10° NE
NOSS 3-4 (C) 3.2 08:55:09 23° SSW 08:58:25 70° ESE 09:03:49 10° NE
Aureole 3 Rocket 2.3 08:55:11 10° N 08:58:40 79° E 09:00:39 20° S
Cosmos 1844 Rocket 4.4 08:54:18 10° N 08:59:24 35° ENE 09:04:30 10° SE
Cosmos 2360 Rocket 2.7 08:57:06 14° S 09:01:52 57° ESE 09:07:25 10° NNE
ADEOS II 2.2 08:57:09 10° N 09:02:18 61° WNW 09:05:39 22° SSW
SEDSat Delta rocket 4.4 08:58:53 24° SW 09:02:33 47° SSE 09:08:33 10° E
H-2A R/B 2.5 08:59:03 10° SSE 09:02:54 71° ENE 09:06:50 10° N
NOSS 3-2 (A) 4.3 08:55:42 10° NW 09:03:34 57° WSW 09:12:32 10° S
Cosmos 1933 3.4 09:00:28 10° NNW 09:04:07 48° W 09:05:52 26° SSW
RESURS DK-1 3.9 09:01:55 10° SSE 09:05:21 29° ESE 09:08:48 10° NE
JB-3 4.1 09:03:15 14° S 09:06:30 74° W 09:10:20 10° NNW
Cosmos 1544 Rocket 3.8 09:02:45 10° NNW 09:06:59 47° W 09:09:46 20° SSW
Cosmos 158 Rocket 4.2 09:02:39 10° NNW 09:07:13 42° WSW 09:10:55 15° SSW
CZ-2D R/B 2.9 09:05:12 10° N 09:10:05 37° WNW 09:13:07 20° SW
Cosmos 2082 3.6 09:09:46 10° NNW 09:15:24 69° WSW 09:21:02 10° S
Delta 7925 Rocket 3.9 09:14:17 21° SW 09:16:38 35° S 09:20:58 10° ESE
SL-16 R/B 2.6 09:13:13 20° SW 09:16:56 49° WNW 09:22:26 10° N
Delta 168 3.9 09:17:47 18° SSW 09:18:58 22° SSE 09:22:08 10° ESE
Cosmos 1536 Rocket 4.5 09:21:12 19° SW 09:23:38 32° W 09:27:36 10° NNW
Cosmos 1707 3.1 09:21:31 10° N 09:24:05 41° E 09:26:39 10° SSE
Meteor 2-3 Rocket 4.0 09:20:17 14° SSW 09:24:59 53° W 09:30:33 10° N
AQUA 3.8 09:20:50 10° NNE 09:25:32 89° WNW 09:30:13 10° SSW
Okean 1 2.8 09:25:01 10° N 09:28:29 72° W 09:31:57 10° S
Cosmos 2098 Rocket 3.4 09:24:19 10° N 09:29:11 85° W 09:34:36 10° S
Cosmos 2278 4.1 09:27:20 15° SW 09:31:54 49° WNW 09:37:26 10° N
IUS-13 SRM-1 3.1 09:33:50 16° SW 09:35:24 31° SSE 09:40:28 10° E
ALOS 4.1 09:34:04 10° NNW 09:36:41 15° WNW 09:39:16 10° WSW
Delta 2 Rocket 4.4 09:40:15 12° SSW 09:40:15 12° SSW 09:41:11 10° S
Cosmos 2333 Rocket 3.1 09:37:30 12° SW 09:42:03 33° WNW 09:47:10 10° N
SL-08 RB Rocket 3.7 09:38:49 10° N 09:43:17 67° WNW 09:47:41 10° SSW
Resurs 1-4 Rocket 4.0 09:42:48 10° NNW 09:45:34 15° WNW 09:48:21 10° W
Cosmos 1271 Rocket 2.3 09:44:24 10° N 09:47:48 88° W 09:51:12 10° S
H-2A R/B 2.1 09:44:55 10° NNE 09:49:13 87° ESE 09:53:29 10° SSW
USA 281 4.4 09:43:30 10° SE 09:49:44 48° ENE 09:55:59 10° N
Tiangong -1.0 09:47:29 10° W 09:50:27 36° NNW 09:53:24 10° NE
Cosmos 1570 Rocket 4.4 09:45:55 10° NNW 09:51:11 70° ENE 09:56:23 10° SSE
Cosmos 2058 Rocket 4.2 09:48:33 10° N 09:52:54 49° E 09:57:13 10° SSE
SL-4 R/B 2.6 09:51:59 10° W 09:54:21 20° SW 09:56:42 10° S
ARGOS 4.0 09:50:57 10° N 09:55:43 33° WNW 10:00:28 10° SW
NOSS 3-2 (C) 4.3 09:48:03 10° NW 09:55:58 61° WSW 10:05:02 10° SSE
Meteor 1-26 Rocket 4.3 09:50:15 10° N 09:56:01 85° W 10:01:33 10° S
Cosmos 1726 Rocket 3.7 09:52:05 10° NNW 09:56:37 60° W 10:01:00 10° S
BREEZE-M DEB (TANK) 3.4 09:57:13 10° NW 10:04:11 45° SW 10:07:01 10° SSE
